Location: Burland Observatory
(39.4088°N, 105.4217°W)
Time: 16:49:15
(UTC-07:00)

S-56A Canister/Altair - Pass Details

Date: 15 December 2019
Orbit: 634 x 2498 km, 38.9° (Epoch: 23 January)

Event Time Altitude Azimuth Distance (km) Brightness Sun altitude
Rises 05:56:51 0° 189° (S) 4,660 11.7 -14.5°
Reaches altitude 10° 06:00:35 10° 175° (S) 3,978 11.5 -13.8°
Maximum altitude 06:08:25 23° 129° (SE) 3,585 11.9 -12.4°
Drops below altitude 10° 06:17:57 10° 85° (E) 4,972 12.8 -10.7°
Sets 06:23:18 0° 73° (ENE) 6,125 13.0 -9.7°
